Time,TemperatureF,DewpointF,PressureIn,WindDirection,WindDirectionDegrees,WindSpeedMPH,WindSpeedGustMPH,Humidity,HourlyPrecipIn,Conditions,Clouds,dailyrainin,SoftwareType,DateUTC
2013-04-03 00:04:00,28.9,13.9,29.93,NNW,342,8.0,12.0,53,0.00,,,0.00,Wunderground v.1.15,2013-04-03 04:04:00,
2013-04-03 00:09:00,28.9,13.9,29.93,North,355,8.0,8.0,53,0.00,,,0.00,Wunderground v.1.15,2013-04-03 04:09:00,
2013-04-03 00:14:00,28.9,13.9,29.93,NW,313,7.0,9.0,53,0.00,,,0.00,Wunderground v.1.15,2013-04-03 04:14:00,
2013-04-03 00:19:00,28.8,13.8,29.93,NNW,328,7.0,7.0,53,0.00,,,0.00,Wunderground v.1.15,2013-04-03 04:19:00,
2013-04-03 00:24:00,28.8,13.8,29.93,NW,323,7.0,7.0,53,0.00,,,0.00,Wunderground v.1.15,2013-04-03 04:24:00,
2013-04-03 00:29:00,28.9,13.9,29.93,NW,321,7.0,10.0,53,0.00,,,0.00,Wunderground v.1.15,2013-04-03 04:29:00,
2013-04-03 00:34:00,28.8,14.2,29.93,North,355,8.0,18.0,54,0.00,,,0.00,Wunderground v.1.15,2013-04-03 04:34:00,
2013-04-03 00:39:00,28.8,14.2,29.93,NNW,334,7.0,18.0,54,0.00,,,0.00,Wunderground v.1.15,2013-04-03 04:39:00,
2013-04-03 00:44:00,28.7,13.7,29.93,WNW,303,7.0,18.0,53,0.00,,,0.00,Wunderground v.1.15,2013-04-03 04:44:00,
2013-04-03 00:49:00,28.7,14.1,29.93,NNW,332,7.0,7.0,54,0.00,,,0.00,Wunderground v.1.15,2013-04-03 04:49:00,
2013-04-03 00:59:00,28.6,14.5,29.93,NNW,333,6.0,6.0,55,0.00,,,0.00,Wunderground v.1.15,2013-04-03 04:59:00,
2013-04-03 01:09:00,28.6,14.5,29.93,NNW,338,6.0,8.0,55,0.00,,,0.00,Wunderground v.1.15,2013-04-03 05:09:00,
2013-04-03 01:14:00,28.5,14.4,29.93,NNW,347,7.0,8.0,55,0.00,,,0.00,Wunderground v.1.15,2013-04-03 05:14:00,
2013-04-03 01:19:00,28.4,14.7,29.93,NW,316,6.0,7.0,56,0.00,,,0.00,Wunderground v.1.15,2013-04-03 05:19:00,
2013-04-03 01:29:00,28.2,14.5,29.93,NNW,333,6.0,6.0,56,0.00,,,0.00,Wunderground v.1.15,2013-04-03 05:29:00,
2013-04-03 01:34:00,28.0,14.3,29.93,NNW,329,7.0,7.0,56,0.00,,,0.00,Wunderground v.1.15,2013-04-03 05:34:00,
2013-04-03 01:39:00,27.9,14.6,29.93,NW,323,6.0,6.0,57,0.00,,,0.00,Wunderground v.1.15,2013-04-03 05:39:00,
2013-04-03 01:44:00,27.7,14.8,29.94,NNW,330,4.0,14.0,58,0.00,,,0.00,Wunderground v.1.15,2013-04-03 05:44:00,
2013-04-03 01:49:00,27.6,15.1,29.94,NNW,335,4.0,4.0,59,0.00,,,0.00,Wunderground v.1.15,2013-04-03 05:49:00,
2013-04-03 01:54:00,27.4,15.3,29.93,NW,315,5.0,5.0,60,0.00,,,0.00,Wunderground v.1.15,2013-04-03 05:54:00,
2013-04-03 01:59:00,27.3,15.2,29.94,NNW,327,5.0,11.0,60,0.00,,,0.00,Wunderground v.1.15,2013-04-03 05:59:00,
2013-04-03 02:09:00,27.2,15.5,29.94,NW,317,6.0,8.0,61,0.00,,,0.00,Wunderground v.1.15,2013-04-03 06:09:00,
2013-04-03 02:14:00,27.1,15.8,29.94,NW,325,6.0,8.0,62,0.00,,,0.00,Wunderground v.1.15,2013-04-03 06:14:00,
2013-04-03 02:19:00,27.0,15.7,29.94,NW,323,5.0,5.0,62,0.00,,,0.00,Wunderground v.1.15,2013-04-03 06:19:00,
2013-04-03 02:24:00,26.9,15.6,29.94,NW,307,6.0,8.0,62,0.00,,,0.00,Wunderground v.1.15,2013-04-03 06:24:00,
2013-04-03 02:34:00,26.8,15.9,29.94,NNW,336,6.0,9.0,63,0.00,,,0.00,Wunderground v.1.15,2013-04-03 06:34:00,
2013-04-03 02:39:00,26.8,16.2,29.93,NW,309,6.0,14.0,64,0.00,,,0.00,Wunderground v.1.15,2013-04-03 06:39:00,
2013-04-03 02:44:00,26.7,16.1,29.94,NW,310,6.0,14.0,64,0.00,,,0.00,Wunderground v.1.15,2013-04-03 06:44:00,
2013-04-03 02:49:00,26.8,16.2,29.94,NW,316,6.0,6.0,64,0.00,,,0.00,Wunderground v.1.15,2013-04-03 06:49:00,
2013-04-03 02:54:00,26.7,16.5,29.94,North,355,5.0,14.0,65,0.00,,,0.00,Wunderground v.1.15,2013-04-03 06:54:00,
2013-04-03 02:59:00,26.7,16.5,29.94,NW,307,5.0,6.0,65,0.00,,,0.00,Wunderground v.1.15,2013-04-03 06:59:00,
2013-04-03 03:09:00,26.7,16.5,29.94,NNW,348,6.0,8.0,65,0.00,,,0.00,Wunderground v.1.15,2013-04-03 07:09:00,
2013-04-03 03:14:00,26.6,16.4,29.94,NNW,347,6.0,9.0,65,0.00,,,0.00,Wunderground v.1.15,2013-04-03 07:14:00,
2013-04-03 03:19:00,26.6,16.4,29.94,NNW,346,6.0,6.0,65,0.00,,,0.00,Wunderground v.1.15,2013-04-03 07:19:00,
2013-04-03 03:24:00,26.5,16.7,29.94,NNW,338,6.0,8.0,66,0.00,,,0.00,Wunderground v.1.15,2013-04-03 07:24:00,
2013-04-03 03:29:00,26.4,16.2,29.94,NW,322,6.0,6.0,65,0.00,,,0.00,Wunderground v.1.15,2013-04-03 07:29:00,
2013-04-03 03:39:00,26.3,16.1,29.94,NNW,342,6.0,6.0,65,0.00,,,0.00,Wunderground v.1.15,2013-04-03 07:39:00,
2013-04-03 03:44:00,26.4,15.9,29.95,NNE,16,7.0,7.0,64,0.00,,,0.00,Wunderground v.1.15,2013-04-03 07:44:00,
2013-04-03 03:49:00,26.3,15.8,29.95,NNE,15,8.0,8.0,64,0.00,,,0.00,Wunderground v.1.15,2013-04-03 07:49:00,
2013-04-03 03:54:00,26.1,15.2,29.95,NNE,31,7.0,12.0,63,0.00,,,0.00,Wunderground v.1.15,2013-04-03 07:54:00,
2013-04-03 03:59:00,26.0,14.4,29.95,North,5,6.0,11.0,61,0.00,,,0.00,Wunderground v.1.15,2013-04-03 07:59:00,
2013-04-03 04:09:00,25.8,12.2,29.95,NNE,23,8.0,10.0,56,0.00,,,0.00,Wunderground v.1.15,2013-04-03 08:09:00,
2013-04-03 04:14:00,25.6,11.2,29.96,NNE,27,9.0,10.0,54,0.00,,,0.00,Wunderground v.1.15,2013-04-03 08:14:00,
2013-04-03 04:19:00,25.5,11.1,29.96,NNE,28,9.0,9.0,54,0.00,,,0.00,Wunderground v.1.15,2013-04-03 08:19:00,
2013-04-03 04:24:00,25.4,11.5,29.96,North,9,8.0,9.0,55,0.00,,,0.00,Wunderground v.1.15,2013-04-03 08:24:00,
2013-04-03 04:29:00,25.2,11.3,29.97,NNE,27,6.0,7.0,55,0.00,,,0.00,Wunderground v.1.15,2013-04-03 08:29:00,
2013-04-03 04:34:00,25.2,11.3,29.97,NNE,22,7.0,14.0,55,0.00,,,0.00,Wunderground v.1.15,2013-04-03 08:34:00,
2013-04-03 04:44:00,24.9,11.0,29.97,NNE,25,8.0,14.0,55,0.00,,,0.00,Wunderground v.1.15,2013-04-03 08:44:00,
2013-04-03 04:49:00,24.9,11.0,29.97,NNW,344,8.0,8.0,55,0.00,,,0.00,Wunderground v.1.15,2013-04-03 08:49:00,
2013-04-03 04:54:00,24.8,10.5,29.97,NNE,16,8.0,14.0,54,0.00,,,0.00,Wunderground v.1.15,2013-04-03 08:54:00,
2013-04-03 04:59:00,24.8,10.9,29.97,NNE,15,7.0,9.0,55,0.00,,,0.00,Wunderground v.1.15,2013-04-03 08:59:00,
2013-04-03 05:09:00,24.6,10.7,29.98,NW,319,7.0,7.0,55,0.00,,,0.00,Wunderground v.1.15,2013-04-03 09:09:00,
2013-04-03 05:19:00,24.4,10.9,29.98,NNE,32,7.0,7.0,56,0.00,,,0.00,Wunderground v.1.15,2013-04-03 09:19:00,
2013-04-03 05:24:00,24.3,10.8,29.98,NNW,344,5.0,7.0,56,0.00,,,0.00,Wunderground v.1.15,2013-04-03 09:24:00,
2013-04-03 05:29:00,24.3,10.8,29.98,North,360,5.0,5.0,56,0.00,,,0.00,Wunderground v.1.15,2013-04-03 09:29:00,
2013-04-03 05:34:00,24.2,10.7,29.99,North,5,5.0,7.0,56,0.00,,,0.00,Wunderground v.1.15,2013-04-03 09:34:00,
2013-04-03 05:39:00,24.2,10.7,29.99,North,360,6.0,6.0,56,0.00,,,0.00,Wunderground v.1.15,2013-04-03 09:39:00,
2013-04-03 05:44:00,24.1,10.6,29.99,NNE,24,6.0,17.0,56,0.00,,,0.00,Wunderground v.1.15,2013-04-03 09:44:00,
2013-04-03 05:49:00,24.2,10.7,29.99,North,355,6.0,17.0,56,0.00,,,0.00,Wunderground v.1.15,2013-04-03 09:49:00,
2013-04-03 05:54:00,24.2,10.3,29.99,NNW,346,7.0,17.0,55,0.00,,,0.00,Wunderground v.1.15,2013-04-03 09:54:00,
2013-04-03 06:00:00,24.2,10.7,29.99,NNW,342,8.0,8.0,56,0.00,,,0.00,Wunderground v.1.15,2013-04-03 10:00:00,
2013-04-03 06:09:00,24.0,10.2,30.00,North,9,6.0,6.0,55,0.00,,,0.00,Wunderground v.1.15,2013-04-03 10:09:00,
2013-04-03 06:14:00,23.9,10.5,30.00,North,5,7.0,7.0,56,0.00,,,0.00,Wunderground v.1.15,2013-04-03 10:14:00,
2013-04-03 06:19:00,23.8,10.8,30.00,North,355,6.0,6.0,57,0.00,,,0.00,Wunderground v.1.15,2013-04-03 10:19:00,
2013-04-03 06:24:00,23.7,11.1,30.00,NNW,345,4.0,6.0,58,0.00,,,0.00,Wunderground v.1.15,2013-04-03 10:24:00,
2013-04-03 06:29:00,23.6,11.0,30.00,NW,315,4.0,5.0,58,0.00,,,0.00,Wunderground v.1.15,2013-04-03 10:29:00,
2013-04-03 06:34:00,23.7,10.7,30.00,NNW,334,5.0,7.0,57,0.00,,,0.00,Wunderground v.1.15,2013-04-03 10:34:00,
2013-04-03 06:44:00,23.8,10.8,30.01,North,355,6.0,17.0,57,0.00,,,0.00,Wunderground v.1.15,2013-04-03 10:44:00,
2013-04-03 06:49:00,23.7,11.1,30.01,NW,312,6.0,17.0,58,0.00,,,0.00,Wunderground v.1.15,2013-04-03 10:49:00,
2013-04-03 06:54:00,23.7,11.4,30.01,NW,325,5.0,17.0,59,0.00,,,0.00,Wunderground v.1.15,2013-04-03 10:54:00,
2013-04-03 07:00:00,23.8,11.9,30.02,North,5,5.0,6.0,60,0.00,,,0.00,Wunderground v.1.15,2013-04-03 11:00:00,
2013-04-03 07:09:00,23.8,11.5,30.02,North,5,7.0,7.0,59,0.00,,,0.00,Wunderground v.1.15,2013-04-03 11:09:00,
2013-04-03 07:14:00,23.8,11.2,30.02,NW,325,8.0,8.0,58,0.00,,,0.00,Wunderground v.1.15,2013-04-03 11:14:00,
2013-04-03 07:19:00,23.9,11.3,30.03,North,355,8.0,8.0,58,0.00,,,0.00,Wunderground v.1.15,2013-04-03 11:19:00,
2013-04-03 07:24:00,24.0,11.3,30.03,NNW,332,7.0,8.0,58,0.00,,,0.00,Wunderground v.1.15,2013-04-03 11:24:00,
2013-04-03 07:29:00,24.2,11.5,30.03,NNW,342,6.0,11.0,58,0.00,,,0.00,Wunderground v.1.15,2013-04-03 11:29:00,
2013-04-03 07:34:00,24.4,11.7,30.03,NNW,346,6.0,13.0,58,0.00,,,0.00,Wunderground v.1.15,2013-04-03 11:34:00,
2013-04-03 07:39:00,24.5,11.8,30.03,NNW,346,7.0,13.0,58,0.00,,,0.00,Wunderground v.1.15,2013-04-03 11:39:00,
2013-04-03 07:44:00,24.7,12.0,30.04,NW,306,7.0,13.0,58,0.00,,,0.00,Wunderground v.1.15,2013-04-03 11:44:00,
2013-04-03 07:49:00,24.8,11.7,30.03,NNW,344,7.0,13.0,57,0.00,,,0.00,Wunderground v.1.15,2013-04-03 11:49:00,
2013-04-03 07:59:00,24.7,10.8,30.03,NNW,333,9.0,9.0,55,0.00,,,0.00,Wunderground v.1.15,2013-04-03 11:59:00,
2013-04-03 08:09:00,25.1,11.2,30.04,NW,312,9.0,9.0,55,0.00,,,0.00,Wunderground v.1.15,2013-04-03 12:09:00,
2013-04-03 08:14:00,25.2,10.9,30.04,North,360,8.0,9.0,54,0.00,,,0.00,Wunderground v.1.15,2013-04-03 12:14:00,
2013-04-03 08:19:00,25.4,11.9,30.04,NE,40,8.0,8.0,56,0.00,,,0.00,Wunderground v.1.15,2013-04-03 12:19:00,
2013-04-03 08:29:00,25.7,11.3,30.04,North,355,8.0,8.0,54,0.00,,,0.00,Wunderground v.1.15,2013-04-03 12:29:00,
2013-04-03 08:34:00,25.8,11.0,30.04,NNW,341,9.0,10.0,53,0.00,,,0.00,Wunderground v.1.15,2013-04-03 12:34:00,
2013-04-03 08:39:00,25.9,11.5,30.04,North,360,9.0,9.0,54,0.00,,,0.00,Wunderground v.1.15,2013-04-03 12:39:00,
2013-04-03 08:44:00,26.2,11.4,30.04,NNE,13,8.0,16.0,53,0.00,,,0.00,Wunderground v.1.15,2013-04-03 12:44:00,
2013-04-03 08:49:00,26.3,11.5,30.04,NW,317,8.0,8.0,53,0.00,,,0.00,Wunderground v.1.15,2013-04-03 12:49:00,
2013-04-03 08:54:00,26.7,11.8,30.04,NE,39,7.0,16.0,53,0.00,,,0.00,Wunderground v.1.15,2013-04-03 12:54:00,
2013-04-03 08:59:00,26.9,11.6,30.04,NNE,33,7.0,10.0,52,0.00,,,0.00,Wunderground v.1.15,2013-04-03 12:59:00,
2013-04-03 09:09:00,27.0,11.7,30.04,NW,317,8.0,8.0,52,0.00,,,0.00,Wunderground v.1.15,2013-04-03 13:09:00,
2013-04-03 09:14:00,27.2,11.9,30.04,NNW,327,7.0,8.0,52,0.00,,,0.00,Wunderground v.1.15,2013-04-03 13:14:00,
2013-04-03 09:19:00,27.5,11.7,30.04,North,350,7.0,12.0,51,0.00,,,0.00,Wunderground v.1.15,2013-04-03 13:19:00,
2013-04-03 09:24:00,27.2,11.0,30.04,North,5,8.0,12.0,50,0.00,,,0.00,Wunderground v.1.15,2013-04-03 13:24:00,
2013-04-03 09:34:00,28.0,11.3,30.04,North,355,8.0,16.0,49,0.00,,,0.00,Wunderground v.1.15,2013-04-03 13:34:00,
2013-04-03 09:39:00,27.8,11.5,30.04,North,350,9.0,16.0,50,0.00,,,0.00,Wunderground v.1.15,2013-04-03 13:39:00,
2013-04-03 09:44:00,28.0,11.7,30.04,NW,315,9.0,16.0,50,0.00,,,0.00,Wunderground v.1.15,2013-04-03 13:44:00,
2013-04-03 09:49:00,28.2,11.9,30.04,North,350,8.0,16.0,50,0.00,,,0.00,Wunderground v.1.15,2013-04-03 13:49:00,
2013-04-03 09:54:00,28.2,11.5,30.04,NNW,328,9.0,16.0,49,0.00,,,0.00,Wunderground v.1.15,2013-04-03 13:54:00,
2013-04-03 09:59:00,28.5,11.7,30.04,North,360,10.0,10.0,49,0.00,,,0.00,Wunderground v.1.15,2013-04-03 13:59:00,
2013-04-03 10:09:00,28.6,11.8,30.04,NNW,344,10.0,17.0,49,0.00,,,0.00,Wunderground v.1.15,2013-04-03 14:09:00,
2013-04-03 10:14:00,28.6,11.8,30.04,North,360,10.0,17.0,49,0.00,,,0.00,Wunderground v.1.15,2013-04-03 14:14:00,
2013-04-03 10:19:00,29.0,12.2,30.04,North,5,9.0,9.0,49,0.00,,,0.00,Wunderground v.1.15,2013-04-03 14:19:00,
2013-04-03 10:24:00,28.9,11.2,30.04,NNW,339,9.0,9.0,47,0.00,,,0.00,Wunderground v.1.15,2013-04-03 14:24:00,
2013-04-03 10:29:00,29.3,12.0,30.04,NW,319,9.0,12.0,48,0.00,,,0.00,Wunderground v.1.15,2013-04-03 14:29:00,
2013-04-03 10:39:00,29.4,11.6,30.04,NNE,14,10.0,10.0,47,0.00,,,0.00,Wunderground v.1.15,2013-04-03 14:39:00,
2013-04-03 10:44:00,30.0,13.6,30.04,NNW,331,9.0,17.0,50,0.00,,,0.00,Wunderground v.1.15,2013-04-03 14:44:00,
2013-04-03 10:49:00,30.0,12.2,30.04,NNE,25,9.0,17.0,47,0.00,,,0.00,Wunderground v.1.15,2013-04-03 14:49:00,
2013-04-03 10:54:00,29.9,12.1,30.04,NNW,333,9.0,17.0,47,0.00,,,0.00,Wunderground v.1.15,2013-04-03 14:54:00,
2013-04-03 10:59:00,30.2,12.8,30.04,NW,320,9.0,9.0,48,0.00,,,0.00,Wunderground v.1.15,2013-04-03 14:59:00,
2013-04-03 11:09:00,30.5,12.6,30.04,NNW,328,10.0,10.0,47,0.00,,,0.00,Wunderground v.1.15,2013-04-03 15:09:00,
2013-04-03 11:14:00,30.8,11.9,30.04,NNW,345,9.0,11.0,45,0.00,,,0.00,Wunderground v.1.15,2013-04-03 15:14:00,
2013-04-03 11:19:00,30.8,12.9,30.04,WNW,291,10.0,10.0,47,0.00,,,0.00,Wunderground v.1.15,2013-04-03 15:19:00,
2013-04-03 11:24:00,31.1,13.7,30.04,NW,318,9.0,13.0,48,0.00,,,0.00,Wunderground v.1.15,2013-04-03 15:24:00,
2013-04-03 11:29:00,31.2,12.3,30.04,NNW,346,10.0,10.0,45,0.00,,,0.00,Wunderground v.1.15,2013-04-03 15:29:00,
2013-04-03 11:34:00,31.2,12.8,30.04,NNW,348,10.0,19.0,46,0.00,,,0.00,Wunderground v.1.15,2013-04-03 15:34:00,
2013-04-03 11:44:00,31.9,12.9,30.04,NW,316,10.0,19.0,45,0.00,,,0.00,Wunderground v.1.15,2013-04-03 15:44:00,
2013-04-03 11:49:00,32.3,13.8,30.04,NNW,347,10.0,10.0,46,0.00,,,0.00,Wunderground v.1.15,2013-04-03 15:49:00,
2013-04-03 11:54:00,32.5,14.5,30.04,WNW,294,9.0,19.0,47,0.00,,,0.00,Wunderground v.1.15,2013-04-03 15:54:00,
2013-04-03 11:59:00,32.6,12.0,30.04,NNE,28,9.0,9.0,42,0.00,,,0.00,Wunderground v.1.15,2013-04-03 15:59:00,
2013-04-03 12:14:00,33.0,12.9,30.04,NNW,338,10.0,10.0,43,0.00,,,0.00,Wunderground v.1.15,2013-04-03 16:14:00,
2013-04-03 12:19:00,33.6,12.9,30.04,NNW,341,9.0,15.0,42,0.00,,,0.00,Wunderground v.1.15,2013-04-03 16:19:00,
2013-04-03 12:24:00,33.1,11.4,30.04,NW,315,10.0,15.0,40,0.00,,,0.00,Wunderground v.1.15,2013-04-03 16:24:00,
2013-04-03 12:29:00,33.5,12.8,30.04,NW,321,10.0,10.0,42,0.00,,,0.00,Wunderground v.1.15,2013-04-03 16:29:00,
2013-04-03 12:34:00,34.0,12.7,30.05,NNE,13,9.0,12.0,41,0.00,,,0.00,Wunderground v.1.15,2013-04-03 16:34:00,
2013-04-03 12:40:00,34.1,12.8,30.04,NNW,335,9.0,18.0,41,0.00,,,0.00,Wunderground v.1.15,2013-04-03 16:40:00,
2013-04-03 12:49:00,34.6,13.8,30.04,NNE,31,9.0,9.0,42,0.00,,,0.00,Wunderground v.1.15,2013-04-03 16:49:00,
2013-04-03 12:59:00,34.2,12.4,30.04,NNE,28,11.0,12.0,40,0.00,,,0.00,Wunderground v.1.15,2013-04-03 16:59:00,
2013-04-03 13:09:00,34.5,12.6,30.04,NNW,338,11.0,12.0,40,0.00,,,0.00,Wunderground v.1.15,2013-04-03 17:09:00,
2013-04-03 13:14:00,34.4,13.1,30.04,NNW,333,11.0,12.0,41,0.00,,,0.00,Wunderground v.1.15,2013-04-03 17:14:00,
2013-04-03 13:19:00,34.8,13.5,30.04,North,360,10.0,11.0,41,0.00,,,0.00,Wunderground v.1.15,2013-04-03 17:19:00,
2013-04-03 13:29:00,35.5,14.6,30.04,NNW,341,11.0,11.0,42,0.00,,,0.00,Wunderground v.1.15,2013-04-03 17:29:00,
2013-04-03 13:34:00,35.3,12.8,30.04,WNW,298,10.0,18.0,39,0.00,,,0.00,Wunderground v.1.15,2013-04-03 17:34:00,
2013-04-03 13:40:00,35.9,13.9,30.04,NNW,346,9.0,18.0,40,0.00,,,0.00,Wunderground v.1.15,2013-04-03 17:40:00,
2013-04-03 13:49:00,36.0,12.2,30.04,NNW,342,10.0,18.0,37,0.00,,,0.00,Wunderground v.1.15,2013-04-03 17:49:00,
2013-04-03 13:59:00,36.2,14.2,30.04,NW,316,9.0,9.0,40,0.00,,,0.00,Wunderground v.1.15,2013-04-03 17:59:00,
2013-04-03 14:09:00,36.6,12.7,30.04,North,350,9.0,9.0,37,0.00,,,0.00,Wunderground v.1.15,2013-04-03 18:09:00,
2013-04-03 14:14:00,36.8,13.5,30.04,North,360,10.0,12.0,38,0.00,,,0.00,Wunderground v.1.15,2013-04-03 18:14:00,
2013-04-03 14:19:00,36.6,12.7,30.04,North,355,10.0,10.0,37,0.00,,,0.00,Wunderground v.1.15,2013-04-03 18:19:00,
2013-04-03 14:24:00,37.0,13.1,30.04,NW,325,10.0,10.0,37,0.00,,,0.00,Wunderground v.1.15,2013-04-03 18:24:00,
2013-04-03 14:29:00,37.1,13.2,30.04,NNW,327,9.0,9.0,37,0.00,,,0.00,Wunderground v.1.15,2013-04-03 18:29:00,
2013-04-03 14:39:00,37.4,12.8,30.05,NW,319,10.0,10.0,36,0.00,,,0.00,Wunderground v.1.15,2013-04-03 18:39:00,
2013-04-03 14:44:00,37.6,11.7,30.05,NW,321,11.0,14.0,34,0.00,,,0.00,Wunderground v.1.15,2013-04-03 18:44:00,
2013-04-03 14:49:00,37.6,13.0,30.05,NNW,346,11.0,11.0,36,0.00,,,0.00,Wunderground v.1.15,2013-04-03 18:49:00,
2013-04-03 14:54:00,38.0,12.7,30.05,NNW,329,11.0,21.0,35,0.00,,,0.00,Wunderground v.1.15,2013-04-03 18:54:00,
2013-04-03 14:59:00,38.2,13.6,30.05,NW,317,9.0,9.0,36,0.00,,,0.00,Wunderground v.1.15,2013-04-03 18:59:00,
2013-04-03 15:09:00,38.3,14.3,30.05,NNW,344,9.0,13.0,37,0.00,,,0.00,Wunderground v.1.15,2013-04-03 19:09:00,
2013-04-03 15:14:00,38.3,13.0,30.05,NNW,332,9.0,13.0,35,0.00,,,0.00,Wunderground v.1.15,2013-04-03 19:14:00,
2013-04-03 15:19:00,38.3,14.3,30.06,NW,321,10.0,14.0,37,0.00,,,0.00,Wunderground v.1.15,2013-04-03 19:19:00,
2013-04-03 15:24:00,37.8,12.6,30.06,NW,322,10.0,14.0,35,0.00,,,0.00,Wunderground v.1.15,2013-04-03 19:24:00,
2013-04-03 15:29:00,37.7,13.7,30.06,NNW,333,10.0,10.0,37,0.00,,,0.00,Wunderground v.1.15,2013-04-03 19:29:00,
2013-04-03 15:34:00,37.5,12.3,30.05,North,5,9.0,22.0,35,0.00,,,0.00,Wunderground v.1.15,2013-04-03 19:34:00,
2013-04-03 15:44:00,37.4,13.5,30.06,NNW,348,10.0,22.0,37,0.00,,,0.00,Wunderground v.1.15,2013-04-03 19:44:00,
2013-04-03 15:49:00,37.7,12.5,30.06,NNW,341,10.0,22.0,35,0.00,,,0.00,Wunderground v.1.15,2013-04-03 19:49:00,
2013-04-03 15:54:00,38.0,12.7,30.06,North,355,11.0,22.0,35,0.00,,,0.00,Wunderground v.1.15,2013-04-03 19:54:00,
2013-04-03 16:00:00,38.0,12.7,30.06,NNW,346,10.0,12.0,35,0.00,,,0.00,Wunderground v.1.15,2013-04-03 20:00:00,
2013-04-03 16:09:00,38.0,12.7,30.06,NNW,336,9.0,9.0,35,0.00,,,0.00,Wunderground v.1.15,2013-04-03 20:09:00,
2013-04-03 16:14:00,38.1,14.1,30.06,NW,322,8.0,11.0,37,0.00,,,0.00,Wunderground v.1.15,2013-04-03 20:14:00,
2013-04-03 16:19:00,37.8,12.6,30.06,NNW,340,9.0,10.0,35,0.00,,,0.00,Wunderground v.1.15,2013-04-03 20:19:00,
2013-04-03 16:24:00,38.0,13.4,30.06,NNW,346,10.0,11.0,36,0.00,,,0.00,Wunderground v.1.15,2013-04-03 20:24:00,
2013-04-03 16:34:00,38.1,14.1,30.07,North,355,7.0,9.0,37,0.00,,,0.00,Wunderground v.1.15,2013-04-03 20:34:00,
2013-04-03 16:39:00,37.8,13.2,30.07,NW,323,9.0,21.0,36,0.00,,,0.00,Wunderground v.1.15,2013-04-03 20:39:00,
2013-04-03 16:44:00,37.9,14.5,30.07,NNW,330,10.0,21.0,38,0.00,,,0.00,Wunderground v.1.15,2013-04-03 20:44:00,
2013-04-03 16:49:00,38.0,14.0,30.07,North,355,10.0,10.0,37,0.00,,,0.00,Wunderground v.1.15,2013-04-03 20:49:00,
2013-04-03 16:54:00,38.4,15.0,30.07,North,355,9.0,21.0,38,0.00,,,0.00,Wunderground v.1.15,2013-04-03 20:54:00,
2013-04-03 16:59:00,38.3,14.9,30.07,NE,35,8.0,11.0,38,0.00,,,0.00,Wunderground v.1.15,2013-04-03 20:59:00,
2013-04-03 17:09:00,37.8,15.6,30.07,NNE,17,11.0,11.0,40,0.00,,,0.00,Wunderground v.1.15,2013-04-03 21:09:00,
2013-04-03 17:14:00,37.9,15.1,30.07,NNW,348,10.0,12.0,39,0.00,,,0.00,Wunderground v.1.15,2013-04-03 21:14:00,
2013-04-03 17:19:00,37.5,15.3,30.08,NNE,24,11.0,11.0,40,0.00,,,0.00,Wunderground v.1.15,2013-04-03 21:19:00,
2013-04-03 17:29:00,37.1,16.1,30.08,NNW,331,10.0,10.0,42,0.00,,,0.00,Wunderground v.1.15,2013-04-03 21:29:00,
2013-04-03 17:34:00,37.3,16.3,30.08,NW,323,9.0,11.0,42,0.00,,,0.00,Wunderground v.1.15,2013-04-03 21:34:00,
2013-04-03 17:39:00,37.3,16.8,30.08,North,360,9.0,9.0,43,0.00,,,0.00,Wunderground v.1.15,2013-04-03 21:39:00,
2013-04-03 17:44:00,37.1,17.7,30.08,NNW,335,9.0,10.0,45,0.00,,,0.00,Wunderground v.1.15,2013-04-03 21:44:00,
2013-04-03 17:54:00,37.0,17.1,30.08,NW,309,9.0,19.0,44,0.00,,,0.00,Wunderground v.1.15,2013-04-03 21:54:00,
2013-04-03 17:59:00,37.2,17.3,30.09,NNE,29,8.0,13.0,44,0.00,,,0.00,Wunderground v.1.15,2013-04-03 21:59:00,
2013-04-03 18:09:00,37.2,18.8,30.10,North,5,6.0,6.0,47,0.00,,,0.00,Wunderground v.1.15,2013-04-03 22:09:00,
2013-04-03 18:14:00,37.1,17.7,30.10,NNW,343,7.0,11.0,45,0.00,,,0.00,Wunderground v.1.15,2013-04-03 22:14:00,
2013-04-03 18:19:00,37.1,17.7,30.10,North,9,9.0,9.0,45,0.00,,,0.00,Wunderground v.1.15,2013-04-03 22:19:00,
2013-04-03 18:24:00,37.3,18.4,30.10,NW,319,9.0,9.0,46,0.00,,,0.00,Wunderground v.1.15,2013-04-03 22:24:00,
2013-04-03 18:34:00,37.3,18.4,30.11,NNE,33,9.0,17.0,46,0.00,,,0.00,Wunderground v.1.15,2013-04-03 22:34:00,
2013-04-03 18:39:00,37.0,18.1,30.11,North,5,10.0,17.0,46,0.00,,,0.00,Wunderground v.1.15,2013-04-03 22:39:00,
2013-04-03 18:44:00,36.8,18.4,30.11,NNW,327,11.0,17.0,47,0.00,,,0.00,Wunderground v.1.15,2013-04-03 22:44:00,
2013-04-03 18:49:00,36.8,18.4,30.12,North,351,10.0,10.0,47,0.00,,,0.00,Wunderground v.1.15,2013-04-03 22:49:00,
2013-04-03 18:54:00,36.7,18.8,30.12,North,355,8.0,17.0,48,0.00,,,0.00,Wunderground v.1.15,2013-04-03 22:54:00,
2013-04-03 18:59:00,36.8,18.9,30.13,NNE,20,7.0,8.0,48,0.00,,,0.00,Wunderground v.1.15,2013-04-03 22:59:00,
2013-04-03 19:09:00,36.4,18.6,30.13,North,355,8.0,8.0,48,0.00,,,0.00,Wunderground v.1.15,2013-04-03 23:09:00,
2013-04-03 19:14:00,36.1,18.8,30.13,NE,42,9.0,9.0,49,0.00,,,0.00,Wunderground v.1.15,2013-04-03 23:14:00,
2013-04-03 19:24:00,35.6,19.2,30.14,NNE,28,7.0,8.0,51,0.00,,,0.00,Wunderground v.1.15,2013-04-03 23:24:00,
2013-04-03 19:29:00,35.3,19.0,30.14,NNE,32,6.0,7.0,51,0.00,,,0.00,Wunderground v.1.15,2013-04-03 23:29:00,
2013-04-03 19:34:00,35.0,18.7,30.15,NE,36,7.0,10.0,51,0.00,,,0.00,Wunderground v.1.15,2013-04-03 23:34:00,
2013-04-03 19:39:00,34.7,19.3,30.15,NE,34,7.0,7.0,53,0.00,,,0.00,Wunderground v.1.15,2013-04-03 23:39:00,
2013-04-03 19:49:00,34.2,19.3,30.16,NNE,28,5.0,5.0,54,0.00,,,0.00,Wunderground v.1.15,2013-04-03 23:49:00,
2013-04-03 19:54:00,34.0,19.5,30.15,North,11,5.0,7.0,55,0.00,,,0.00,Wunderground v.1.15,2013-04-03 23:54:00,
2013-04-03 19:59:00,33.8,19.7,30.16,NE,47,4.0,5.0,56,0.00,,,0.00,Wunderground v.1.15,2013-04-03 23:59:00,
2013-04-03 20:09:00,33.4,19.8,30.16,NNE,23,4.0,4.0,57,0.00,,,0.00,Wunderground v.1.15,2013-04-04 00:09:00,
2013-04-03 20:14:00,33.2,19.6,30.16,NNE,28,4.0,4.0,57,0.00,,,0.00,Wunderground v.1.15,2013-04-04 00:14:00,
2013-04-03 20:19:00,33.1,19.9,30.17,NE,34,4.0,4.0,58,0.00,,,0.00,Wunderground v.1.15,2013-04-04 00:19:00,
2013-04-03 20:24:00,33.0,19.8,30.17,NE,34,4.0,4.0,58,0.00,,,0.00,Wunderground v.1.15,2013-04-04 00:24:00,
2013-04-03 20:29:00,32.9,19.7,30.17,NNE,24,4.0,4.0,58,0.00,,,0.00,Wunderground v.1.15,2013-04-04 00:29:00,
2013-04-03 20:34:00,32.8,19.6,30.17,NNE,27,4.0,13.0,58,0.00,,,0.00,Wunderground v.1.15,2013-04-04 00:34:00,
2013-04-03 20:39:00,32.7,19.9,30.18,NNE,27,3.0,3.0,59,0.00,,,0.00,Wunderground v.1.15,2013-04-04 00:39:00,
2013-04-03 20:49:00,31.9,20.7,30.19,NNE,27,2.0,13.0,63,0.00,,,0.00,Wunderground v.1.15,2013-04-04 00:49:00,
2013-04-03 20:54:00,31.7,20.5,30.19,NNE,27,2.0,13.0,63,0.00,,,0.00,Wunderground v.1.15,2013-04-04 00:54:00,
2013-04-03 20:59:00,31.6,20.4,30.19,NNE,27,1.0,1.0,63,0.00,,,0.00,Wunderground v.1.15,2013-04-04 00:59:00,
2013-04-03 21:09:00,31.5,20.3,30.19,NNE,26,1.0,1.0,63,0.00,,,0.00,Wunderground v.1.15,2013-04-04 01:09:00,
2013-04-03 21:14:00,31.6,20.1,30.19,NNE,25,1.0,1.0,62,0.00,,,0.00,Wunderground v.1.15,2013-04-04 01:14:00,
2013-04-03 21:19:00,31.5,20.0,30.19,NNE,25,1.0,1.0,62,0.00,,,0.00,Wunderground v.1.15,2013-04-04 01:19:00,
2013-04-03 21:24:00,31.5,19.6,30.20,North,10,1.0,1.0,61,0.00,,,0.00,Wunderground v.1.15,2013-04-04 01:24:00,
2013-04-03 21:29:00,31.5,20.0,30.19,North,10,2.0,2.0,62,0.00,,,0.00,Wunderground v.1.15,2013-04-04 01:29:00,
2013-04-03 21:34:00,31.2,20.1,30.19,North,10,2.0,6.0,63,0.00,,,0.00,Wunderground v.1.15,2013-04-04 01:34:00,
2013-04-03 21:44:00,31.1,19.6,30.20,North,10,2.0,6.0,62,0.00,,,0.00,Wunderground v.1.15,2013-04-04 01:44:00,
2013-04-03 21:49:00,31.2,19.3,30.20,North,10,2.0,6.0,61,0.00,,,0.00,Wunderground v.1.15,2013-04-04 01:49:00,
2013-04-03 21:59:00,31.1,19.2,30.20,North,9,1.0,1.0,61,0.00,,,0.00,Wunderground v.1.15,2013-04-04 01:59:00,
2013-04-03 22:09:00,30.5,18.6,30.20,North,5,1.0,1.0,61,0.00,,,0.00,Wunderground v.1.15,2013-04-04 02:09:00,
2013-04-03 22:14:00,30.5,19.0,30.20,North,5,1.0,2.0,62,0.00,,,0.00,Wunderground v.1.15,2013-04-04 02:14:00,
2013-04-03 22:19:00,30.5,18.6,30.21,North,5,1.0,3.0,61,0.00,,,0.00,Wunderground v.1.15,2013-04-04 02:19:00,
2013-04-03 22:24:00,30.5,18.6,30.21,North,5,1.0,3.0,61,0.00,,,0.00,Wunderground v.1.15,2013-04-04 02:24:00,
2013-04-03 22:29:00,30.2,18.7,30.21,North,5,0.0,0.0,62,0.00,,,0.00,Wunderground v.1.15,2013-04-04 02:29:00,
2013-04-03 22:34:00,29.9,18.1,30.21,North,5,0.0,4.0,61,0.00,,,0.00,Wunderground v.1.15,2013-04-04 02:34:00,
2013-04-03 22:39:00,29.7,18.3,30.21,North,5,0.0,4.0,62,0.00,,,0.00,Wunderground v.1.15,2013-04-04 02:39:00,
2013-04-03 22:44:00,29.5,18.4,30.21,North,5,0.0,4.0,63,0.00,,,0.00,Wunderground v.1.15,2013-04-04 02:44:00,
2013-04-03 22:49:00,29.1,18.1,30.21,North,5,0.0,4.0,63,0.00,,,0.00,Wunderground v.1.15,2013-04-04 02:49:00,
2013-04-03 22:54:00,28.8,18.1,30.21,North,5,0.0,4.0,64,0.00,,,0.00,Wunderground v.1.15,2013-04-04 02:54:00,
2013-04-03 22:59:00,28.6,18.3,30.22,North,5,0.0,0.0,65,0.00,,,0.00,Wunderground v.1.15,2013-04-04 02:59:00,
2013-04-03 23:10:00,28.2,18.3,30.22,North,5,0.0,0.0,66,0.00,,,0.00,Wunderground v.1.15,2013-04-04 03:10:00,
2013-04-03 23:19:00,27.9,18.0,30.23,North,5,0.0,0.0,66,0.00,,,0.00,Wunderground v.1.15,2013-04-04 03:19:00,
2013-04-03 23:24:00,27.9,18.0,30.23,North,5,0.0,0.0,66,0.00,,,0.00,Wunderground v.1.15,2013-04-04 03:24:00,
2013-04-03 23:29:00,27.9,18.0,30.23,North,5,0.0,0.0,66,0.00,,,0.00,Wunderground v.1.15,2013-04-04 03:29:00,
2013-04-03 23:34:00,27.9,18.0,30.23,North,5,0.0,1.0,66,0.00,,,0.00,Wunderground v.1.15,2013-04-04 03:34:00,
2013-04-03 23:39:00,27.9,18.0,30.23,North,5,0.0,2.0,66,0.00,,,0.00,Wunderground v.1.15,2013-04-04 03:39:00,
2013-04-03 23:49:00,27.6,17.7,30.23,North,5,0.0,2.0,66,0.00,,,0.00,Wunderground v.1.15,2013-04-04 03:49:00,
2013-04-03 23:54:00,27.4,17.5,30.23,North,5,0.0,2.0,66,0.00,,,0.00,Wunderground v.1.15,2013-04-04 03:54:00,
2013-04-03 23:59:00,27.4,17.5,30.23,North,5,0.0,0.0,66,0.00,,,0.00,Wunderground v.1.15,2013-04-04 03:59:00,